This is the latest recevied weather packets stored in our database for station/object KF6ILA. If no packets are shown the sender has not sent any weather packets the latest 10 day(s).
| Time | Temp. | Humidity | Pressure | Rain* | Wind** | Luminosity | Snow |
|---|---|---|---|---|---|---|---|
| 1788159572 | 20° C | 41% | 1014.8 hPa | 0 mm | - | 0 W/m² | - |
| 1788158384 | 20° C | 40% | 1014.9 hPa | 0 mm | - | 0 W/m² | - |
| 1788158087 | 20.56° C | 39% | 1014.8 hPa | 0 mm | - | 0 W/m² | - |
| 1788157790 | 20.56° C | 38% | 1014.8 hPa | 0 mm | - | 0 W/m² | - |
| 1788157493 | 20.56° C | 38% | 1014.9 hPa | 0 mm | - | 0 W/m² | - |
| 1788157196 | 20.56° C | 38% | 1014.6 hPa | 0 mm | - | 0 W/m² | - |
| 1788156899 | 20.56° C | 38% | 1014.7 hPa | 0 mm | - | 0 W/m² | - |
| 1788156602 | 20.56° C | 37% | 1014.7 hPa | 0 mm | - | 0 W/m² | - |
| 1788155414 | 20.56° C | 33% | 1014.6 hPa | 0 mm | - | 0 W/m² | - |
| 1788155117 | 20.56° C | 34% | 1014.6 hPa | 0 mm | - | 0 W/m² | - |
| 1788154523 | 20.56° C | 38% | 1014.6 hPa | 0 mm | - | 0 W/m² | - |
| 1788154226 | 20.56° C | 38% | 1014.6 hPa | 0 mm | - | 0 W/m² | - |
| 1788153335 | 20.56° C | 41% | 1015.3 hPa | 0 mm | - | 0 W/m² | - |
| 1788153038 | 20.56° C | 41% | 1015.3 hPa | 0 mm | - | 0 W/m² | - |
| 1788152741 | 20° C | 43% | 1015.2 hPa | 0 mm | - | 0 W/m² | - |
| 1788151553 | 20° C | 47% | 1015.3 hPa | 0 mm | - | 0 W/m² | - |
| 1788151256 | 20° C | 49% | 1015.4 hPa | 0 mm | - | 0 W/m² | - |
| 1788150068 | 20° C | 57% | 1015.2 hPa | 0 mm | - | 0 W/m² | - |
| 1788149771 | 20° C | 58% | 1015.2 hPa | 0 mm | - | 0 W/m² | - |
| 1788149474 | 20° C | 59% | 1015.2 hPa | 0 mm | - | 0 W/m² | - |
| 1788149177 | 19.44° C | 59% | 1015.1 hPa | 0 mm | - | 0 W/m² | - |
| 1788147395 | 20° C | 64% | 1014.8 hPa | 0 mm | - | 0 W/m² | - |
| 1788146801 | 20° C | 63% | 1014.5 hPa | 0 mm | - | 0 W/m² | - |
| 1788146504 | 19.44° C | 65% | 1014.6 hPa | 0 mm | - | 0 W/m² | - |
| 1788146207 | 19.44° C | 66% | 1014.5 hPa | 0 mm | - | 0 W/m² | - |
* Rain latest hour (hover to see other rain measurements)
** Current wind speed in m/s (hover to see current wind gust speed)